Weather History for Chadron, NE

Change the Weather History Date:

Saturday, May 18, 2013

  Actual Average Record
Temperature  
Mean Temperature 66 °F 57 °F  
Max Temperature 79 °F 71 °F 97 °F (1934)
Min Temperature 53 °F 42 °F 29 °F (1915)
Degree Days  
Heating Degree Days 0 9  
Month to date heating degree days 183 213  
Since 1 July heating degree days 6734 6976  
Cooling Degree Days 1 1  
Month to date cooling degree days 23 2  
Year to date cooling degree days 23 4  
Growing Degree Days 15 (Base 50)    
Moisture  
Dew Point 53 °F    
Average Humidity 68    
Maximum Humidity 86    
Minimum Humidity 50    
Precipitation  
Precipitation 0.01 in 0.08 in 1.60 in (2000)
Month to date precipitation 0.04 1.50  
Year to date precipitation 4.85 5.68  
Sea Level Pressure  
Sea Level Pressure 29.73 in    
Wind  
Wind Speed 6 mph (SW)    
Max Wind Speed 25 mph    
Max Gust Speed 31 mph    
Visibility 10 miles    
Events Rain , Thunderstorm    
T = Trace of Precipitation, MM = Missing Value Source: NWS Daily Summary

Daily Weather History Graph

Daily Weather History Graph

Search for Another Location

Airport:

Trip Planner

Search our weather history database for the weather conditions in past years. The results will help you decide how hot, cold, wet, or windy it might be!

Date:

Astronomy

May. 18, 2013 Rise Set
Actual Time 5:26 AM MDT 8:11 PM MDT
Civil Twilight 4:53 AM MDT 8:44 PM MDT
Nautical Twilight 4:12 AM MDT 9:26 PM MDT
Astronomical Twilight 3:24 AM MDT 10:14 PM MDT
Moon 1:07 PM MDT (5/18) 1:30 AM MDT (5/18)
Length of Visible Light 15h 51m
Length of Day
14h 45m
First Quarter, 56% of the Moon is Illuminated
May 18
First Quarter
May 24
Full
May 31
Last Quarter
Jun 8
New
Jun 16
First Quarter

Hourly Weather History & Observations

Time (MDT) Temp. Dew Point Humidity Pressure Visibility Wind Dir Wind Speed Gust Speed Precip Events Conditions
12:53 AM 71.1 °F 55.9 °F 59% 29.61 in 10.0 mi SSE 28.8 mph 41.4 mph N/A   Clear
1:53 AM 62.1 °F 52.0 °F 70% 29.69 in 10.0 mi NNE 13.8 mph - N/A   Clear
2:53 AM 57.0 °F 51.1 °F 81% 29.70 in 10.0 mi Calm Calm - N/A   Clear
3:53 AM 55.0 °F 50.0 °F 83% 29.73 in 10.0 mi SW 8.1 mph - N/A   Scattered Clouds
4:53 AM 57.9 °F 52.0 °F 81% 29.75 in 10.0 mi South 5.8 mph - N/A   Overcast
5:11 AM 57.2 °F 51.8 °F 82% 29.80 in 10.0 mi South 4.6 mph - N/A   Mostly Cloudy
5:49 AM 57.2 °F 53.6 °F 88% 29.81 in 10.0 mi SW 8.1 mph - N/A   Overcast
5:53 AM 57.0 °F 52.0 °F 83% 29.77 in 10.0 mi WSW 8.1 mph - N/A   Overcast
6:53 AM 55.9 °F 51.1 °F 84% 29.78 in 10.0 mi SW 9.2 mph - N/A   Overcast
7:53 AM 57.0 °F 51.1 °F 81% 29.81 in 10.0 mi SW 9.2 mph - N/A   Overcast
8:53 AM 61.0 °F 53.1 °F 75% 29.81 in 10.0 mi WSW 8.1 mph - N/A   Overcast
9:53 AM 64.0 °F 55.0 °F 73% 29.79 in 10.0 mi West 5.8 mph - N/A   Overcast
10:53 AM 68.0 °F 55.0 °F 63% 29.77 in 10.0 mi NW 9.2 mph - N/A   Overcast
11:40 AM 69.8 °F 55.4 °F 60% 29.81 in 10.0 mi NW 5.8 mph - N/A   Mostly Cloudy
11:53 AM 72.0 °F 55.9 °F 57% 29.74 in 10.0 mi Variable 3.5 mph - N/A   Partly Cloudy
1:53 PM 75.9 °F 55.9 °F 50% 29.72 in 10.0 mi Calm Calm - N/A   Scattered Clouds
2:53 PM 75.9 °F 55.0 °F 48% 29.71 in 10.0 mi Variable 4.6 mph - N/A   Partly Cloudy
3:53 PM 75.0 °F 55.0 °F 50% 29.66 in 10.0 mi NNE 11.5 mph - N/A Thunderstorm Thunderstorm
4:53 PM 71.1 °F 55.0 °F 57% 29.63 in 10.0 mi NNE 11.5 mph 21.9 mph 0.00 in Rain , Thunderstorm Light Rain
5:53 PM 68.0 °F 57.0 °F 68% 29.66 in 10.0 mi Calm Calm - 0.01 in Thunderstorm Mostly Cloudy
6:21 PM 66.2 °F 57.2 °F 73% 29.71 in 10.0 mi ENE 16.1 mph 23.0 mph N/A   Mostly Cloudy
6:53 PM 62.1 °F 55.0 °F 78% 29.70 in 10.0 mi SE 11.5 mph - N/A   Partly Cloudy
7:53 PM 61.0 °F 52.0 °F 72% 29.69 in 10.0 mi Calm Calm - N/A   Mostly Cloudy
8:53 PM 59.0 °F 48.9 °F 69% 29.79 in 10.0 mi SSW 5.8 mph - 0.00 in   Overcast
9:53 PM 59.0 °F 48.9 °F 69% 29.74 in 10.0 mi ESE 4.6 mph - N/A   Overcast
10:53 PM 55.9 °F 52.0 °F 87% 29.73 in 10.0 mi SW 3.5 mph - N/A   Clear
11:53 PM 57.0 °F 50.0 °F 77% 29.69 in 10.0 mi West 8.1 mph - N/A   Clear